User: anonymous   Login
Location: Unspecified
(0.0000°N, 0.0000°E)
Time: 00:10:44
(UTC+02:00)
Language:

Cosmos 1703 Rocket - Orbit

View from above orbital plane
View from above orbital plane
View from above satellite
View from above satellite

Ground track
Ground track

The orbit data is extracted from the following two-line orbital elements,

1 16263U 85108B   16150.91072690 +.00000143 +00000-0 +14595-4 0  9993
2 16263 082.5031 113.8626 0020422 166.0798 218.1286 14.82919391626507
Epoch (UTC): 29 May 2016 21:51:26
Eccentricity: 0.0020422
inclination: 82.5031°
perigee height: 606 km
apogee height: 634 km
right ascension of ascending node: 113.8626°
argument of perigee: 166.0798°
revolutions per day: 14.82919391
mean anomaly at epoch: 218.1286°
orbit number at epoch: 62650

The dashed part of the orbit path shows where the satellite is in the earth's shadow,  

DLR